Location: Milevsko
(49.4500°N, 14.3670°E)
Time: 07:46:37
(UTC+01:00)

ISS - Pass Details

Date: 25 November 2022
Orbit: 411 x 420 km, 51.6° (Epoch: 29 November)

Event Time Altitude Azimuth Distance (km) Brightness Sun altitude
Rises 17:50:37 0° 262° (W) 2,344 1.9 -15.8°
Reaches altitude 10° 17:52:43 10° 265° (W) 1,482 0.3 -16.2°
Maximum altitude 17:56:02 66° 349° (N) 453 -3.7 -16.7°
Enters shadow 17:56:51 45° 52° (NE) 573 -3.5 -16.8°
